Greeley, CO

8:50 AM MDT on September 16, 2019 (GMT -0600)
Greeley-Weld County

Weather History for KGXY - August, 2019

Change the Weather History Date:

Sunday, August 18, 2019

  Actual Average Record
Temperature  
Mean Temperature 74 °F -  
Max Temperature 92 °F - 99 °F (1986)
Min Temperature 56 °F - 46 °F (2001)
Degree Days  
Heating Degree Days 0    
Month to date heating degree days 0  
Cooling Degree Days 9    
Month to date cooling degree days 180  
Growing Degree Days 24 (Base 50)    
Moisture  
Dew Point 56 °F    
Average Humidity 61    
Maximum Humidity 93    
Minimum Humidity 29    
Precipitation  
Precipitation 0.00 in - 1.27 in (2004)
Snow  
Snow 0.00 in - - ()
Snow Depth 0.00 in    
Sea Level Pressure  
Sea Level Pressure 29.91 in    
Wind  
Wind Speed 6 mph (East)    
Max Wind Speed 9 mph    
Max Gust Speed -    
Visibility 10 miles    
Events      
T = Trace of Precipitation, MM = Missing Value Source: NWS Daily Summary

Daily Weather History Graph

Daily Weather History Graph

Search for Another Location

Airport or City:

Astronomy

Aug. 18, 2019 Rise Set
Actual Time 6:12 AM MDT 7:51 PM MDT
Civil Twilight 5:43 AM MDT 8:20 PM MDT
Nautical Twilight 5:07 AM MDT 8:55 PM MDT
Astronomical Twilight 4:30 AM MDT 9:33 PM MDT
Moon 9:47 PM MDT (8/18) 8:59 AM MDT (8/18)
Length of Visible Light 14h 37m
Length of Day
13h 39m
Waning Gibbous, 91% of the Moon is Illuminated
Aug 18
Waning Gibbous
Aug 23
Last Quarter
Aug 30
New
Sep 5
First Quarter
Sep 13
Full

Hourly Weather History & Observations

Time (MDT) Temp. Heat Index Dew Point Humidity Pressure Visibility Wind Dir Wind Speed Gust Speed Precip Events Conditions
12:56 AM 62.1 °F - 48.9 °F 62% 29.83 in 10.0 mi NE 4.6 mph - N/A   Unknown
1:56 AM 59.0 °F - 51.1 °F 75% 29.84 in 10.0 mi Calm Calm - N/A   Unknown
2:56 AM 59.0 °F - 57.0 °F 93% 29.88 in 10.0 mi NE 9.2 mph - N/A   Unknown
3:56 AM 59.0 °F - 57.0 °F 93% 29.90 in 10.0 mi East 6.9 mph - N/A   Unknown
4:56 AM 60.1 °F - 57.0 °F 90% 29.91 in 10.0 mi East 5.8 mph - N/A   Unknown
5:56 AM 60.1 °F - 55.9 °F 86% 29.91 in 10.0 mi SSE 5.8 mph - N/A   Unknown
6:56 AM 60.1 °F - 55.9 °F 86% 29.95 in 10.0 mi ESE 8.1 mph - N/A   Unknown
7:56 AM 60.1 °F - 55.0 °F 83% 29.98 in 10.0 mi East 9.2 mph - N/A   Unknown
8:56 AM 57.0 °F - 53.1 °F 87% 30.01 in 10.0 mi East 9.2 mph - N/A   Unknown
9:56 AM 57.0 °F - 53.1 °F 87% 30.01 in 10.0 mi ESE 9.2 mph - N/A   Unknown
10:56 AM 60.1 °F - 54.0 °F 80% 29.99 in 10.0 mi East 8.1 mph - N/A   Unknown
12:56 PM 69.1 °F - 55.0 °F 61% 29.96 in 10.0 mi Variable 4.6 mph - N/A   Unknown
1:56 PM 75.9 °F - 55.9 °F 50% 29.92 in 10.0 mi Variable 4.6 mph - N/A   Unknown
2:56 PM 80.1 °F 80.4 °F 57.0 °F 45% 29.88 in 10.0 mi SE 6.9 mph - N/A   Unknown
3:56 PM 84.9 °F 83.9 °F 57.0 °F 38% 29.84 in 10.0 mi ESE 9.2 mph - N/A   Unknown
4:56 PM 89.1 °F 87.3 °F 55.9 °F 32% 29.81 in 10.0 mi South 9.2 mph - N/A   Unknown
5:56 PM 90.0 °F 88.1 °F 55.9 °F 31% 29.81 in 10.0 mi SE 4.6 mph - N/A   Unknown
6:56 PM 90.0 °F 87.7 °F 54.0 °F 29% 29.82 in 10.0 mi Calm Calm - N/A   Unknown
7:56 PM 77.0 °F - 61.0 °F 58% 29.86 in 4.0 mi NNW 9.2 mph - N/A   Haze
8:56 PM 71.1 °F - 61.0 °F 70% 29.91 in 10.0 mi North 6.9 mph - N/A   Unknown
9:56 PM 69.1 °F - 60.1 °F 73% 29.93 in 10.0 mi East 3.5 mph - N/A   Unknown
10:56 PM 64.9 °F - 57.0 °F 75% 29.95 in 10.0 mi North 4.6 mph - N/A   Unknown
11:56 PM 63.0 °F - 54.0 °F 72% 29.94 in 10.0 mi Calm Calm - N/A   Unknown